Guam Agana, GU

2:16 AM ChST on October 24, 2019 (GMT +1000)
Guam International

Weather History for PGUM - August, 2019

Change the Weather History Date:

Wednesday, August 14, 2019

  Actual Average Record
Temperature  
Mean Temperature 83 °F -  
Max Temperature 89 °F 84 °F 90 °F (2017)
Min Temperature 77 °F 75 °F 73 °F (2014)
Cooling Degree Days 18    
Growing Degree Days 33 (Base 50)    
Moisture  
Dew Point 74 °F    
Average Humidity 80    
Maximum Humidity 90    
Minimum Humidity 57    
Precipitation  
Precipitation 0.20 in - - ()
Sea Level Pressure  
Sea Level Pressure 29.91 in    
Wind  
Wind Speed 6 mph (NNE)    
Max Wind Speed 16 mph    
Max Gust Speed 24 mph    
Visibility 9 miles    
Events Rain    
Averages and records for this station are not official NWS values.
T = Trace of Precipitation, MM = Missing Value Source: NWS Daily Summary

Daily Weather History Graph

Daily Weather History Graph

Search for Another Location

Airport or City:

Astronomy

Aug. 14, 2019 Rise Set
Actual Time 6:07 AM ChST 6:43 PM ChST
Civil Twilight 5:45 AM ChST 7:05 PM ChST
Nautical Twilight 5:19 AM ChST 7:31 PM ChST
Astronomical Twilight 4:53 AM ChST 7:57 PM ChST
Moon 5:56 PM ChST (8/14) 4:48 AM ChST (8/14)
Length of Visible Light 13h 19m
Length of Day
12h 35m
Waxing Gibbous, 98% of the Moon is Illuminated
Aug 14
Waxing Gibbous
Aug 15
Full
Aug 24
Last Quarter
Aug 30
New
Sep 6
First Quarter

Hourly Weather History & Observations

Time (ChST) Temp. Heat Index Dew Point Humidity Pressure Visibility Wind Dir Wind Speed Gust Speed Precip Events Conditions
12:54 AM 77.0 °F - 73.0 °F 88% 29.91 in 10.0 mi Calm Calm - N/A   Clear
1:34 AM 80.1 °F 84.5 °F 73.9 °F 81% 29.93 in 10.0 mi Calm Calm - N/A   Partly Cloudy
1:54 AM 79.0 °F - 73.9 °F 84% 29.91 in 10.0 mi Calm Calm - N/A   Partly Cloudy
2:54 AM 80.1 °F 84.5 °F 73.9 °F 81% 29.90 in 10.0 mi Calm Calm - N/A   Clear
3:54 AM 78.1 °F - 73.9 °F 87% 29.89 in 10.0 mi Calm Calm - N/A   Clear
4:54 AM 78.1 °F - 73.9 °F 87% 29.88 in 10.0 mi Calm Calm - N/A   Clear
5:54 AM 79.0 °F - 75.0 °F 88% 29.89 in 10.0 mi Calm Calm - N/A   Clear
6:54 AM 80.1 °F 85.4 °F 75.9 °F 87% 29.91 in 10.0 mi NE 3.5 mph - N/A   Clear
7:54 AM 82.0 °F 89.4 °F 75.9 °F 82% 29.92 in 10.0 mi NE 3.5 mph - N/A   Clear
8:54 AM 84.9 °F 93.3 °F 75.0 °F 72% 29.93 in 10.0 mi ENE 9.2 mph - N/A   Clear
9:54 AM 87.1 °F 95.4 °F 73.9 °F 65% 29.93 in 10.0 mi ENE 10.4 mph - N/A   Clear
10:54 AM 89.1 °F 96.0 °F 72.0 °F 57% 29.92 in 10.0 mi East 10.4 mph - N/A   Scattered Clouds
11:13 AM 87.1 °F 94.5 °F 73.0 °F 63% 29.94 in 10.0 mi NE 9.2 mph - N/A   Mostly Cloudy
11:22 AM 87.1 °F 95.4 °F 73.9 °F 65% 29.94 in 10.0 mi ENE 10.4 mph - N/A   Mostly Cloudy
11:30 AM 87.1 °F 95.4 °F 73.9 °F 65% 29.94 in 10.0 mi ENE 12.7 mph - N/A   Mostly Cloudy
11:54 AM 87.1 °F 95.4 °F 73.9 °F 65% 29.90 in 10.0 mi East 11.5 mph - N/A   Mostly Cloudy
12:08 PM 86.0 °F 93.8 °F 73.9 °F 67% 29.92 in 10.0 mi ENE 8.1 mph - N/A   Mostly Cloudy
12:54 PM 82.9 °F 89.4 °F 73.9 °F 74% 29.88 in 10.0 mi East 13.8 mph 24.2 mph N/A   Scattered Clouds
1:54 PM 84.0 °F 91.9 °F 75.0 °F 74% 29.87 in 10.0 mi East 9.2 mph - 0.00 in Rain Light Rain
2:54 PM 84.0 °F 92.6 °F 75.9 °F 76% 29.85 in 10.0 mi East 6.9 mph - 0.00 in   Scattered Clouds
3:49 PM 86.0 °F 95.1 °F 75.2 °F 70% 29.87 in 10.0 mi ENE 5.8 mph - N/A   Mostly Cloudy
3:54 PM 84.9 °F 93.3 °F 75.0 °F 72% 29.84 in 10.0 mi NE 5.8 mph - N/A   Scattered Clouds
4:02 PM 84.9 °F 93.3 °F 75.0 °F 72% 29.87 in 10.0 mi ENE 4.6 mph - N/A   Mostly Cloudy
4:54 PM 84.9 °F 91.4 °F 73.0 °F 67% 29.85 in 10.0 mi NE 10.4 mph - N/A   Scattered Clouds
5:35 PM 82.9 °F 89.4 °F 73.9 °F 74% 29.88 in 10.0 mi NNE 9.2 mph - N/A   Partly Cloudy
5:54 PM 82.9 °F 90.2 °F 75.0 °F 77% 29.87 in 10.0 mi North 8.1 mph - N/A   Partly Cloudy
6:31 PM 80.1 °F 85.1 °F 75.0 °F 85% 29.91 in 10.0 mi NNW 12.7 mph - N/A   Mostly Cloudy
6:47 PM 79.0 °F - 75.0 °F 88% 29.91 in 5.0 mi NW 16.1 mph 24.2 mph 0.00 in Rain Rain
6:54 PM 79.0 °F - 75.0 °F 88% 29.89 in 5.0 mi NNW 8.1 mph - 0.01 in Rain Light Rain
7:03 PM 79.0 °F - 75.0 °F 88% 29.92 in 1.8 mi North 16.1 mph 23.0 mph 0.07 in Rain Heavy Rain
7:12 PM 79.0 °F - 75.0 °F 88% 29.92 in 2.5 mi NW 15.0 mph - 0.18 in Rain Light Rain
7:19 PM 77.0 °F - 73.4 °F 89% 29.92 in 9.0 mi NW 16.1 mph - 0.18 in Rain Light Rain
7:32 PM 77.0 °F - 73.9 °F 90% 29.93 in 10.0 mi NW 9.2 mph - 0.18 in   Overcast
7:52 PM 77.0 °F - 73.4 °F 89% 29.93 in 10.0 mi NNW 8.1 mph - 0.18 in   Scattered Clouds
7:54 PM 77.0 °F - 73.9 °F 90% 29.91 in 10.0 mi NNW 8.1 mph - 0.18 in   Scattered Clouds
8:54 PM 78.1 °F - 75.0 °F 90% 29.92 in 10.0 mi NNW 5.8 mph - 0.00 in   Scattered Clouds
9:45 PM 79.0 °F - 75.0 °F 88% 29.94 in 10.0 mi NNW 6.9 mph - N/A   Mostly Cloudy
9:54 PM 79.0 °F - 75.0 °F 88% 29.92 in 10.0 mi NNW 5.8 mph - N/A   Mostly Cloudy
10:31 PM 77.0 °F - 73.9 °F 90% 29.95 in 10.0 mi NNW 11.5 mph - 0.01 in   Overcast
10:42 PM 78.1 °F - 75.0 °F 90% 29.94 in 10.0 mi NNW 10.4 mph - 0.01 in   Scattered Clouds
10:52 PM 78.8 °F - 75.2 °F 89% 29.94 in 10.0 mi North 9.2 mph - 0.01 in   Mostly Cloudy
10:54 PM 78.1 °F - 75.0 °F 90% 29.92 in 9.0 mi North 9.2 mph - 0.01 in Rain Light Rain
11:13 PM 78.1 °F - 75.0 °F 90% 29.93 in 10.0 mi NW 9.2 mph - 0.00 in   Overcast
11:31 PM 78.1 °F - 73.9 °F 87% 29.92 in 10.0 mi North 11.5 mph - 0.00 in   Mostly Cloudy
11:54 PM 78.1 °F - 75.0 °F 90% 29.88 in 10.0 mi NNE 12.7 mph - 0.00 in   Scattered Clouds